FW9490 Weather Reports


time (UTC)temp
F
wind
direction
speed
knots
gust
knots
rain 1hr
in
rain 24hr
in
rain mn
in
humidity
%
barometer
mb
20260504012553 0 308 0.0 0.0 0.00 0.00 0.00 1014.2
20260504012051 0 307 0.0 0.0 0.00 0.00 0.00 1014.5
20260504011548 0 308 0.0 0.0 0.00 0.00 0.00 1014.7
20260504011044 0 309 0.0 0.0 0.00 0.00 0.00 1014.6
20260504010539 0 309 0.0 0.0 0.00 0.00 0.00 1014.7
20260504010036 0 309 0.0 0.0 0.00 0.00 0.00 1014.8
20260504005533 0 303 0.0 0.0 0.00 0.00 0.00 1014.7
20260504005030 0 303 0.0 0.0 0.00 0.00 0.00 1014.6
20260504004528 0 303 0.0 0.0 0.00 0.00 0.00 1014.3
20260504004025 0 303 0.0 0.0 0.00 0.00 0.00 1014.3
20260504003520 0 310 0.0 0.0 0.00 0.00 0.00 1014.5
20260504003018 0 316 0.0 0.0 0.00 0.00 0.00 1014.4
20260504002514 0 308 0.0 0.0 0.00 0.00 0.00 1014.2
20260504002012 0 297 0.0 0.0 0.00 0.00 0.00 1014.2
20260504001509 0 302 0.0 0.0 0.00 0.00 0.00 1014.0
20260504001005 0 314 0.0 0.0 0.00 0.00 0.00 1014.3
20260504000503 0 315 0.0 0.0 0.00 0.00 0.00 1014.2
20260504000000 0 312 0.0 0.0 0.00 0.00 0.00 1014.2
20260503235458 0 310 0.0 0.0 0.00 0.00 0.00 1014.3
20260503234955 0 317 0.0 0.0 0.00 0.00 0.00 1014.5
20260503234452 0 283 0.0 0.0 0.00 0.00 0.00 1014.4
20260503233950 0 229 0.9 0.9 0.00 0.00 0.00 1014.4
20260503233446 0 286 0.0 0.0 0.00 0.00 0.00 1014.5
20260503232943 0 291 0.0 0.0 0.00 0.00 0.00 1014.5
20260503232440 0 312 0.0 0.0 0.00 0.00 0.00 1014.7
20260503231938 0 298 0.0 0.0 0.00 0.00 0.00 1014.6
20260503231435 0 292 0.0 0.0 0.00 0.00 0.00 1014.8
20260503230931 0 318 2.6 4.3 0.00 0.00 0.00 1014.8
20260503230428 0 300 0.0 0.0 0.00 0.00 0.00 1014.7
20260503225926 0 284 0.9 0.9 0.00 0.00 0.00 1014.9
20260503225422 0 310 0.0 0.0 0.00 0.00 0.00 1014.8
20260503224918 0 90 0.0 0.0 0.00 0.00 0.00 1014.8
20260503224415 0 293 0.0 0.0 0.00 0.00 0.00 1014.9
20260503223913 0 331 0.9 0.9 0.00 0.00 0.00 1014.9
20260503223411 0 309 0.0 0.9 0.00 0.00 0.00 1015.0
20260503222910 0 259 0.9 0.9 0.00 0.00 0.00 1014.9
20260503222409 0 330 0.0 0.0 0.00 0.00 0.00 1015.0
20260503221907 0 299 0.0 0.0 0.00 0.00 0.00 1015.1
20260503221405 0 290 0.0 0.0 0.00 0.00 0.00 1015.1
20260503220901 0 283 0.0 0.9 0.00 0.00 0.00 1015.0
20260503220358 0 292 0.9 0.9 0.00 0.00 0.00 1015.2
20260503215855 0 179 0.9 1.7 0.00 0.00 0.00 1015.4
20260503215352 0 303 1.7 1.7 0.00 0.00 0.00 1015.3
20260503214849 0 294 2.6 2.6 0.00 0.00 0.00 1015.5
20260503214347 0 270 0.9 0.9 0.00 0.00 0.00 1015.4
20260503213844 0 342 0.0 0.9 0.00 0.00 0.00 1015.4
20260503213342 0 15 0.9 1.7 0.00 0.00 0.00 1015.5
20260503212838 0 269 0.9 0.9 0.00 0.00 0.00 1015.4
20260503212336 0 244 0.9 1.7 0.00 0.00 0.00 1015.6
20260503211833 0 288 0.9 0.9 0.00 0.00 0.00 1015.4
20260503211330 0 322 2.6 2.6 0.00 0.00 0.00 1015.6
20260503210825 0 316 1.7 1.7 0.00 0.00 0.00 1015.8
20260503210323 0 257 0.9 0.9 0.00 0.00 0.00 1015.7
20260503205817 0 298 0.0 0.9 0.00 0.00 0.00 1015.7
20260503205314 0 279 0.9 0.9 0.00 0.00 0.00 1016.1
20260503204811 0 279 0.9 1.7 0.00 0.00 0.00 1015.8
20260503204309 0 258 0.9 1.7 0.00 0.00 0.00 1016.3
20260503203806 0 265 0.9 0.9 0.00 0.00 0.00 1016.4
20260503203303 0 296 0.9 0.9 0.00 0.00 0.00 1016.5
20260503202800 0 260 0.0 0.9 0.00 0.00 0.00 1016.2
20260503202258 0 356 0.9 0.9 0.00 0.00 0.00 1016.3
20260503201756 0 305 0.9 1.7 0.00 0.00 0.00 1016.6
20260503201253 0 323 0.0 0.9 0.00 0.00 0.00 1016.7
20260503200750 0 288 0.0 0.9 0.00 0.00 0.00 1016.7
20260503200245 0 166 1.7 1.7 0.00 0.00 0.00 1017.0
20260503195742 0 120 0.9 0.9 0.00 0.00 0.00 1016.7
20260503195239 0 199 0.9 0.9 0.00 0.00 0.00 1017.0
20260503194737 0 252 0.9 0.9 0.00 0.00 0.00 1017.1
20260503194232 0 312 0.0 0.9 0.00 0.00 0.00 1016.9
20260503193728 0 291 0.0 0.0 0.00 0.00 0.00 1017.3
20260503193225 0 338 0.0 0.0 0.00 0.00 0.00 1017.2
20260503192721 0 321 2.6 2.6 0.00 0.00 0.00 1017.3
20260503192216 0 273 0.0 0.9 0.00 0.00 0.00 1017.4
20260503191713 0 281 0.9 1.7 0.00 0.00 0.00 1017.5
20260503191210 0 295 1.7 1.7 0.00 0.00 0.00 1017.6
20260503190707 0 297 0.0 0.0 0.00 0.00 0.00 1017.5
20260503190203 0 116 0.9 1.7 0.00 0.00 0.00 1017.6
20260503185701 0 236 0.0 0.9 0.00 0.00 0.00 1017.5
20260503185156 0 255 0.0 0.9 0.00 0.00 0.00 1017.8
20260503184651 0 263 0.9 1.7 0.00 0.00 0.00 1017.7
20260503184148 0 274 3.5 4.3 0.00 0.00 0.00 1017.7
20260503183644 0 256 0.0 0.0 0.00 0.00 0.00 1017.7
20260503183142 0 0 0.0 0.0 0.00 0.00 0.00 1017.9
20260503182639 0 268 1.7 2.6 0.00 0.00 0.00 1017.8
20260503182138 0 274 0.0 0.0 0.00 0.00 0.00 1017.9
20260503181635 0 242 0.0 0.0 0.00 0.00 0.00 1018.0
20260503181131 0 359 1.7 1.7 0.00 0.00 0.00 1018.2
20260503180628 0 206 0.0 0.0 0.00 0.00 0.00 1018.2
20260503180126 0 266 0.9 0.9 0.00 0.00 0.00 1018.3
20260503175622 0 307 2.6 2.6 0.00 0.00 0.00 1018.3
20260503175119 0 276 0.0 0.9 0.00 0.00 0.00 1018.2
20260503174616 0 277 0.0 0.0 0.00 0.00 0.00 1018.3
20260503174114 0 15 0.9 0.9 0.00 0.00 0.00 1018.4
20260503173608 0 321 2.6 5.2 0.00 0.00 0.00 1018.6
20260503173105 0 130 0.9 0.9 0.00 0.00 0.00 1018.6
20260503172602 0 124 0.9 1.7 0.00 0.00 0.00 1018.7
20260503172059 0 275 0.0 0.0 0.00 0.00 0.00 1018.7
20260503171555 0 295 0.0 0.0 0.00 0.00 0.00 1018.6
20260503171053 0 292 0.9 1.7 0.00 0.00 0.00 1018.9
20260503170549 0 83 0.9 0.9 0.00 0.00 0.00 1018.6
20260503150942 0 17 0.9 1.7 0.00 0.00 0.00 1019.9
20260503150439 0 61 0.0 0.9 0.00 0.00 0.00 1019.9
20260503131331 0 336 0.0 0.9 0.00 0.00 0.00 1019.7
20260503130829 0 322 0.0 0.9 0.00 0.00 0.00 1019.9
20260503130326 0 253 0.0 0.0 0.00 0.00 0.00 1019.8
20260503110714 0 315 0.0 0.0 0.00 0.00 0.00 1018.6
20260503110206 0 327 0.0 0.0 0.00 0.00 0.00 1018.3
20260503100132 0 297 0.0 0.0 0.00 0.00 0.00 1017.8
20260503081516 0 304 0.0 0.0 0.00 0.00 0.00 1017.5
20260503081013 0 282 0.0 0.9 0.00 0.00 0.00 1017.4
20260503080509 0 321 0.0 0.0 0.00 0.00 0.00 1017.1
20260503072442 0 325 0.0 0.9 0.00 0.00 0.00 1016.7
20260503071939 0 324 0.0 0.0 0.00 0.00 0.00 1016.8
20260503071431 0 331 0.0 0.0 0.00 0.00 0.00 1016.8
20260503070927 0 302 0.0 0.0 0.00 0.00 0.00 1016.9
20260503070424 0 292 0.0 0.0 0.00 0.00 0.00 1017.1
20260503054838 0 288 0.0 0.0 0.00 0.00 0.00 1016.5
20260503054334 0 342 0.0 0.0 0.00 0.00 0.00 1016.3
20260503053832 0 335 0.0 0.0 0.00 0.00 0.00 1016.4
20260503053330 0 341 0.9 0.9 0.00 0.00 0.00 1016.5
20260503052826 0 314 0.9 1.7 0.00 0.00 0.00 1016.5
20260503052323 0 355 0.9 0.9 0.00 0.00 0.00 1016.5
20260503051819 0 346 0.9 0.9 0.00 0.00 0.00 1016.2
20260503051316 0 355 0.9 0.9 0.00 0.00 0.00 1016.5
20260503050812 0 346 0.0 0.9 0.00 0.00 0.00 1016.1
20260503050309 0 308 0.0 0.0 0.00 0.00 0.00 1016.4
20260503045807 0 315 0.0 0.9 0.00 0.00 0.00 1016.3
20260503045305 0 297 0.0 0.0 0.00 0.00 0.00 1016.3
20260503044800 0 287 0.0 0.0 0.00 0.00 0.00 1016.5
20260503044257 0 300 0.0 0.9 0.00 0.00 0.00 1016.5
20260503043754 0 306 0.0 0.0 0.00 0.00 0.00 1016.3
20260503043251 0 300 0.0 0.0 0.00 0.00 0.00 1016.4
20260503042747 0 353 0.9 0.9 0.00 0.00 0.00 1016.1
20260503042244 0 1 0.9 0.9 0.00 0.00 0.00 1016.1
20260503041740 0 301 0.0 0.0 0.00 0.00 0.00 1016.1
20260503041238 0 305 0.9 0.9 0.00 0.00 0.00 1016.2
20260503040735 0 338 0.0 0.0 0.00 0.00 0.00 1016.1
20260503040233 0 23 0.9 0.9 0.00 0.00 0.00 1016.0
20260503035729 0 358 0.9 0.9 0.00 0.00 0.00 1016.2
20260503035227 0 318 0.0 0.0 0.00 0.00 0.00 1016.0
20260503034724 0 294 1.7 1.7 0.00 0.00 0.00 1016.1
20260503034221 0 338 0.0 0.9 0.00 0.00 0.00 1016.1
20260503033718 0 347 1.7 1.7 0.00 0.00 0.00 1015.7
20260503033215 0 352 1.7 1.7 0.00 0.00 0.00 1015.8
20260503032713 0 342 0.9 0.9 0.00 0.00 0.00 1015.7
20260503032212 0 4 2.6 2.6 0.00 0.00 0.00 1015.8
20260503031708 0 322 0.0 0.9 0.00 0.00 0.00 1016.0
20260503031207 0 327 1.7 2.6 0.00 0.00 0.00 1016.0
20260503030702 0 324 1.7 1.7 0.00 0.00 0.00 1016.2
20260503030159 0 282 0.9 1.7 0.00 0.00 0.00 1015.8
20260503025656 0 322 0.9 0.9 0.00 0.00 0.00 1015.7
20260503025154 0 306 0.9 0.9 0.00 0.00 0.00 1015.8
20260503024650 0 0 0.9 0.9 0.00 0.00 0.00 1015.6
20260503024147 0 15 1.7 1.7 0.00 0.00 0.00 1015.6
20260503023644 0 11 1.7 1.7 0.00 0.00 0.00 1015.6
20260503023141 0 18 2.6 2.6 0.00 0.00 0.00 1015.4
20260503022638 0 16 1.7 1.7 0.00 0.00 0.00 1015.7
20260503022137 0 270 1.7 2.6 0.00 0.00 0.00 1015.6
20260503021634 0 3 2.6 2.6 0.00 0.00 0.00 1015.5
20260503021131 0 322 0.9 0.9 0.00 0.00 0.00 1015.4
20260503020628 0 17 1.7 1.7 0.00 0.00 0.00 1015.5
20260503020126 0 334 1.7 1.7 0.00 0.00 0.00 1015.2
20260503015622 0 322 0.9 0.9 0.00 0.00 0.00 1015.1
20260503015119 0 332 1.7 1.7 0.00 0.00 0.00 1015.1
20260503014615 0 314 0.9 0.9 0.00 0.00 0.00 1015.2
20260503014113 0 13 2.6 4.3 0.00 0.00 0.00 1015.2
20260503013610 0 0 0.9 1.7 0.00 0.00 0.00 1015.1
20260503013108 0 319 0.0 0.0 0.00 0.00 0.00 1015.0